TimeCST,TemperatureF,Dew PointF,Humidity,Sea Level PressureIn,VisibilityMPH,Wind Direction,Wind SpeedMPH,Gust SpeedMPH,PrecipitationIn,Events,Conditions,WindDirDegrees,DateUTC
12:37 AM,35.6,33.8,93,29.82,3.0,Calm,Calm,-,N/A,,Clear,0,2013-01-28 06:37:00
12:44 AM,33.8,32.0,93,29.82,2.0,SSE,4.6,-,N/A,,Clear,160,2013-01-28 06:44:00
12:48 AM,33.8,32.0,93,29.82,1.5,South,4.6,-,N/A,,Clear,180,2013-01-28 06:48:00
12:55 AM,34.0,32.0,92,29.84,1.5,Calm,Calm,-,N/A,,Clear,0,2013-01-28 06:55:00
1:01 AM,33.8,32.0,93,29.82,2.0,SSE,3.5,-,N/A,,Clear,160,2013-01-28 07:01:00
1:11 AM,33.8,33.8,100,29.82,1.5,South,4.6,-,N/A,,Clear,170,2013-01-28 07:11:00
1:22 AM,33.8,32.0,93,29.82,1.2,Calm,Calm,-,N/A,,Clear,0,2013-01-28 07:22:00
1:37 AM,33.8,33.8,100,29.82,0.5,Calm,Calm,-,N/A,Fog,Fog,0,2013-01-28 07:37:00
1:52 AM,32.0,30.2,93,29.81,1.5,Calm,Calm,-,N/A,,Clear,0,2013-01-28 07:52:00
1:55 AM,33.1,30.9,92,29.82,1.5,Calm,Calm,-,N/A,,Clear,0,2013-01-28 07:55:00
2:09 AM,30.2,30.2,100,29.81,0.2,Calm,Calm,-,N/A,Fog,Light Freezing Fog,0,2013-01-28 08:09:00
2:22 AM,32.0,30.2,93,29.81,1.2,Calm,Calm,-,N/A,,Scattered Clouds,0,2013-01-28 08:22:00
2:33 AM,30.2,30.2,100,29.81,0.8,Calm,Calm,-,N/A,,Mist,0,2013-01-28 08:33:00
2:55 AM,30.0,28.9,96,29.81,0.2,Calm,Calm,-,N/A,Fog,Light Freezing Fog,0,2013-01-28 08:55:00
3:55 AM,28.0,27.0,96,29.81,0.2,Calm,Calm,-,N/A,Fog,Light Freezing Fog,0,2013-01-28 09:55:00
4:55 AM,28.0,27.0,96,29.82,0.2,East,3.5,-,N/A,Fog,Light Freezing Fog,80,2013-01-28 10:55:00
5:55 AM,28.0,28.0,100,29.82,0.2,East,3.5,-,N/A,Fog,Light Freezing Fog,100,2013-01-28 11:55:00
6:55 AM,28.9,28.0,96,29.83,0.2,ENE,3.5,-,N/A,Fog,Light Freezing Fog,70,2013-01-28 12:55:00
7:55 AM,30.0,28.9,96,29.82,0.2,East,3.5,-,N/A,Fog,Light Freezing Fog,90,2013-01-28 13:55:00
8:55 AM,30.9,30.9,100,29.83,0.2,Calm,Calm,-,N/A,Fog,Light Freezing Fog,0,2013-01-28 14:55:00
9:55 AM,32.0,32.0,100,29.80,0.2,East,4.6,-,N/A,Fog,Fog,90,2013-01-28 15:55:00
10:55 AM,35.1,35.1,100,29.79,0.2,East,4.6,-,N/A,Fog,Fog,100,2013-01-28 16:55:00
11:55 AM,39.9,39.0,97,29.77,0.2,East,3.5,-,N/A,Fog,Fog,90,2013-01-28 17:55:00
12:36 PM,44.6,42.8,93,29.70,1.8,South,10.4,-,N/A,,Overcast,170,2013-01-28 18:36:00
12:51 PM,44.6,44.6,100,29.70,2.5,South,10.4,-,N/A,,Overcast,190,2013-01-28 18:51:00
12:55 PM,44.1,44.1,100,29.73,2.5,SSW,9.2,-,N/A,,Overcast,210,2013-01-28 18:55:00
1:06 PM,44.6,44.6,100,29.70,3.0,South,10.4,-,N/A,,Mostly Cloudy,180,2013-01-28 19:06:00
1:23 PM,46.4,44.6,93,29.68,4.0,SSW,9.2,-,N/A,,Scattered Clouds,200,2013-01-28 19:23:00
1:55 PM,53.1,45.0,74,29.66,7.0,South,8.1,-,N/A,,Clear,180,2013-01-28 19:55:00
2:55 PM,63.0,43.0,48,29.62,10.0,SSE,10.4,-,N/A,,Clear,150,2013-01-28 20:55:00
3:55 PM,68.0,41.0,37,29.58,10.0,South,19.6,26.5,N/A,,Clear,180,2013-01-28 21:55:00
4:55 PM,66.9,39.9,37,29.57,10.0,South,16.1,25.3,N/A,,Clear,180,2013-01-28 22:55:00
5:55 PM,64.9,39.9,40,29.57,10.0,South,15.0,23.0,N/A,,Clear,180,2013-01-28 23:55:00
6:55 PM,63.0,48.0,58,29.57,10.0,South,13.8,-,N/A,,Clear,170,2013-01-29 00:55:00
7:55 PM,63.0,53.1,70,29.57,9.0,South,12.7,21.9,N/A,,Clear,180,2013-01-29 01:55:00
8:55 PM,62.1,54.0,75,29.56,9.0,South,19.6,-,0.01,,Clear,180,2013-01-29 02:55:00
9:55 PM,61.0,54.0,78,29.56,9.0,South,18.4,-,N/A,,Clear,190,2013-01-29 03:55:00
10:55 PM,60.1,54.0,80,29.54,9.0,South,15.0,23.0,N/A,,Clear,180,2013-01-29 04:55:00
11:31 PM,57.2,53.6,88,29.58,6.0,WNW,17.3,36.8,N/A,,Partly Cloudy,290,2013-01-29 05:31:00
11:42 PM,37.4,35.6,93,29.59,4.0,WNW,12.7,25.3,N/A,,Scattered Clouds,300,2013-01-29 05:42:00
11:53 PM,37.4,35.6,93,29.60,3.0,WNW,15.0,-,N/A,,Mostly Cloudy,300,2013-01-29 05:53:00
11:54 PM,37.0,36.0,96,29.62,3.0,WNW,15.0,-,N/A,,Mostly Cloudy,300,2013-01-29 05:54:00